AMAZONAS 4A

Last updated on Sun Apr 12 2026 00:02:53 GMT+0000 (Coordinated Universal Time)

1 39616U 14011A 26101.50604399 -.00000251 00000+0 00000+0 0 9995 2 39616 0.0617 208.1810 0002095 190.6825 269.0360 1.00273856 44048
UTC large
Height (km)
Speed (km/s)
/
Latitude / Longitude
Inclination (degrees)
Orbital Period (minutes)
Azimuth
Elevation
Range (km)
Doppler Factor

Next 0 passes for location: London (51.5072 / 0.1276)

Sorry there are no passes over London.
AMAZONAS 4A